Simultaneous Nadir Overpasses (SNOs) Predictions

Prediction of SNOs near US between AQUA and NPP Satellite Orbit:

Table of predicted SNOs near US for the next 10.0 days since TLE Epoch: 11/24/2018
Index Date (AQUA) Time (AQUA) AQUA Lat,Lon Date (NPP) Time (NPP) NPP Lat,Lon Distance(km) Time Diff (sec)
1 11/24/2018 18:16:51 49.95, -80.17 11/24/2018 18:10:55 49.68, -81.79 120.13 356
2 11/24/2018 19:55:44 49.95,-104.88 11/24/2018 19:52:23 49.57,-107.11 165.42 201
3 11/24/2018 21:30:54 36.71,-124.99 11/24/2018 21:30:01 36.19,-127.62 241.91 53
4 11/27/2018 09:23:27 23.59,-113.39 11/27/2018 09:16:06 23.71,-113.90 53.30 441
5 11/30/2018 06:30:15 46.37, -65.03 11/30/2018 06:30:55 46.76, -67.11 165.60 40
6 11/30/2018 08:08:08 49.93, -88.33 11/30/2018 08:11:21 50.44, -90.92 192.77 193
7 11/30/2018 09:47:01 49.94,-113.05 11/30/2018 09:52:49 50.55,-116.24 237.15 348
8 12/02/2018 19:06:18 50.00, -92.54 12/02/2018 19:01:39 49.66, -94.48 143.58 279
9 12/02/2018 20:45:11 49.99,-117.26 12/02/2018 20:43:07 49.55,-119.80 188.88 124




NCC Satellite Simultaneous Nadir Overpasses (SNOs) Prediction Service
